Regional Weather Roundup
Issued by NWS

Home | Current Version | Previous Version | Graphics & Text | Print | Product List | Glossary On
Versions: 1 2 3 4 5 6 7 8 9 10 11 12 13 14 15 16 17 18 19 20 21 22 23 24 25 26 27 28 29 30 31 32 33 34 35 36 37 38 39 40 41 42 43 44 45 46 47 48 49 50
000
ASUS43 KDTX 290601
RWRMI
MICHIGAN HOURLY REGIONAL WEATHER ROUNDUP
NATIONAL WEATHER SERVICE DETROIT/PONTIAC MI
200 AM EDT FRI MAY 29 2015

NOTE: "FAIR" INDICATES FEW OR NO CLOUDS BELOW 12,000 FEET WITH NO
SIGNIFICANT WEATHER AND/OR OBSTRUCTION TO VISIBILITY.

MIZ047>049-052>055-059>063-066>070-074>076-081>083-290700-
SOUTHEAST LOWER MICHIGAN

CITY           SKY/WX    TMP DP  RH WIND       PRES   REMARKS
ADRIAN         PTCLDY    63  56  78 E5        30.18S
6HR MIN TEMP:  63; 6HR MAX TEMP:  74;

ALMA           PTCLDY    63  55  73 CALM      30.16S
6HR MIN TEMP:  62; 6HR MAX TEMP:  77;

ANN ARBOR      PTCLDY    60  52  74 CALM      30.18F
BAD AXE        CLEAR     63  51  66 S6        30.19S
CARO           CLEAR     56  51  84 CALM      30.17S
DETROIT CITY   CLEAR     62  49  62 SE8       30.19F
6HR MIN TEMP:  62; 6HR MAX TEMP:  72;

DETROIT        MOCLDY    65  49  56 E6        30.19F
6HR MIN TEMP:  64; 6HR MAX TEMP:  75;

FLINT          CLEAR     63  49  60 S6        30.18S
6HR MIN TEMP:  62; 6HR MAX TEMP:  75;

GROSSE ILE     CLEAR     64  52  63 E5        30.17S
HILLSDALE      PTCLDY    65  54  68 E9        30.17F
6HR MIN TEMP:  64; 6HR MAX TEMP:  76;

HOWELL         CLEAR     61  50  68 SE8       30.18S
6HR MIN TEMP:  61; 6HR MAX TEMP:  73;


CITY           SKY/WX    TMP DP  RH WIND       PRES   REMARKS
JACKSON        CLEAR     63  52  67 SE9       30.17F
6HR MIN TEMP:  62; 6HR MAX TEMP:  74;

LAMBERTVILLE   PTCLDY    64  54  68 CALM      30.17F
LANSING        PTCLDY    64  52  64 SE12      30.16F
6HR MIN TEMP:  64; 6HR MAX TEMP:  77;

LAPEER         FAIR      60  48  64 S5        30.19S
MASON          CLEAR     60  51  71 SE8       30.16F
MONROE         PTCLDY    66  54  63 E7        30.16F
MT. CLEMENS    CLEAR     60  55  81 SE2       30.17F
6HR MIN TEMP:  60; 6HR MAX TEMP:  69;

PONTIAC        CLEAR     63  49  60 SE5       30.19S
6HR MIN TEMP:  63; 6HR MAX TEMP:  76;

PORT HOPE        N/A     66  53  63 S5        30.16F
6HR MIN TEMP:  66; 6HR MAX TEMP:  70;

PORT HURON     CLEAR     59  50  72 SE3       30.20F
TRI CITIES     CLEAR     65  53  65 SE8       30.17S
6HR MIN TEMP:  64; 6HR MAX TEMP:  80;

MIDLAND        FAIR      68  53  58 SE8       30.15S
TROY           CLEAR     64  47  53 CALM      30.21S
SAGINAW HB     CLEAR     59  52  77 SE5       30.17R
$$
MIZ043>046-050>051-056>058-064>065-071>073-077>080-290700-
SOUTHWEST LOWER MICHIGAN

CITY           SKY/WX    TMP DP  RH WIND       PRES   REMARKS
BATTLE CREEK   CLEAR     67  52  58 SE8       30.15S
6HR MIN TEMP:  67; 6HR MAX TEMP:  78;

BENTON HARBOR  PTCLDY    66  56  70 SE8       30.10R
6HR MIN TEMP:  66; 6HR MAX TEMP:  78;

BIG RAPIDS     CLEAR     58  55  87 CALM      30.14S
6HR MIN TEMP:  58; 6HR MAX TEMP:  76;

COLDWATER      CLEAR     64  53  68 SE7       30.15R
6HR MIN TEMP:  64; 6HR MAX TEMP:  74;

FREMONT        FAIR      64  57  77 SE5       30.11F
HOLLAND        PTCLDY    67  55  65 SE8       30.12S
6HR MIN TEMP:  66; 6HR MAX TEMP:  77;

GRAND RAPIDS   PTCLDY    65  55  70 SE7       30.13F
6HR MIN TEMP:  65; 6HR MAX TEMP:  77;

IONIA          FAIR      65  51  62 SE10      30.14S
KALAMAZOO      PTCLDY    67  53  61 SE5       30.14R
6HR MIN TEMP:  66; 6HR MAX TEMP:  78;

LUDINGTON      PTCLDY    61  56  84 SE3       30.10F
6HR MIN TEMP:  58; 6HR MAX TEMP:  76;

MARSHALL       PTCLDY    64  53  67 E7        30.14F
MOUNT PLEASANT CLEAR     64  55  70 SE3       30.15S
6HR MIN TEMP:  64; 6HR MAX TEMP:  78;

MUSKEGON       PTCLDY    63  56  78 SE6       30.11S
6HR MIN TEMP:  63; 6HR MAX TEMP:  75;

SOUTH HAVEN    PTCLDY    67  55  65 SE8       30.10S
$$
MIZ016>042-290700-
NORTHERN LOWER MICHIGAN

CITY           SKY/WX    TMP DP  RH WIND       PRES   REMARKS
ALPENA         PTCLDY    55  52  89 CALM      30.15S
6HR MIN TEMP:  54; 6HR MAX TEMP:  65;

BEAVER ISLAND  PTCLDY    53  52  95 SE7       30.11S
6HR MIN TEMP:  52; 6HR MAX TEMP:  64;

BELLAIRE       PTCLDY    58  57  96 CALM      30.12S
6HR MIN TEMP:  58; 6HR MAX TEMP:  71;

CADILLAC       CLEAR     65  56  74 S3        30.14S
CHARLEVOIX     PTCLDY    60  58  91 SE5       30.14S
6HR MIN TEMP:  60; 6HR MAX TEMP:  64;

FRANKFORT      CLEAR     58  51  77 CALM      30.10S
GAYLORD        PTCLDY    60  59  96 CALM      30.15R
6HR MIN TEMP:  60; 6HR MAX TEMP:  77;

GRAYLING       MOCLDY    64  58  81 S5        30.16R
6HR MIN TEMP:  57; 6HR MAX TEMP:  76;

HARBOR SPRINGS PTCLDY    58  56  93 CALM      30.12S
HOUGHTON LAKE  PTCLDY    64  57  78 SE6       30.16S
6HR MIN TEMP:  64; 6HR MAX TEMP:  76;

MANISTEE       CLEAR     57  54  88 E6        30.11S
OSCODA         CLEAR     65  56  72 S5        30.15F
PELLSTON       PTCLDY    55  53  93 CALM      30.13S
6HR MIN TEMP:  54; 6HR MAX TEMP:  71;

ROGERS CITY    PTCLDY    64  59  83 S7        30.14S
TRAVERSE CITY  PTCLDY    57  54  89 CALM      30.10F
6HR MIN TEMP:  56; 6HR MAX TEMP:  63;

$$
MIZ007>008-015-290700-
EASTERN UPPER MICHIGAN

CITY           SKY/WX    TMP DP  RH WIND       PRES   REMARKS
KINROSS        PTCLDY    54  52  94 SE7       30.13S
6HR MIN TEMP:  54; 6HR MAX TEMP:  66;

MACKINAC ISLAN PTCLDY    44  43  97 E3        30.13R
6HR MIN TEMP:  44; 6HR MAX TEMP:  49;

NEWBERRY       PTCLDY    55  53  91 S5        30.09F
6HR MIN TEMP:  54; 6HR MAX TEMP:  66;

S. S. MARIE    PTCLDY    55  49  80 E6        30.13S
6HR MIN TEMP:  54; 6HR MAX TEMP:  66;

$$
MIZ004>006-011>014-085-290700-
CENTRAL UPPER MICHIGAN

CITY           SKY/WX    TMP DP  RH WIND       PRES   REMARKS
MANISTIQUE     MOCLDY    52  50  93 S3        30.09S
6HR MIN TEMP:  50; 6HR MAX TEMP:  55;

ESCANABA       MOCLDY    54  48  82 SE6       30.06S
6HR MIN TEMP:  54; 6HR MAX TEMP:  57;

MENOMINEE      MOCLDY    63  52  67 S5        30.05F
6HR MIN TEMP:  63; 6HR MAX TEMP:  75;

$$
MIZ001>003-009>011-084-290700-
WESTERN UPPER MICHIGAN

CITY           SKY/WX    TMP DP  RH WIND       PRES   REMARKS
IRON MOUNTAIN  PTCLDY    62  58  86 SE6       30.03F
6HR MIN TEMP:  61; 6HR MAX TEMP:  70; 6HR PCP: TRACE;

HOUGHTON       MOCLDY    59  55  87 SW8       29.96F
6HR MIN TEMP:  48; 6HR MAX TEMP:  60;

COPPER HARBOR    N/A     59  54  83 W7        29.94F
6HR MIN TEMP:  54; 6HR MAX TEMP:  66; 6HR PCP:  0.09;

IRONWOOD       MOCLDY    68  55  64 S9        29.94F
6HR MIN TEMP:  66; 6HR MAX TEMP:  79;

$$

ABBREVIATIONS USED IN REMARKS
   TC - TEMPERATURE IN CELSIUS
  WCI - WIND CHILL INDEX
   HX - HEAT INDEX
  VSB - VISIBILITY



USA.gov is the U.S. government's official web portal to all federal, state and local government web resources and services.